Location: Nag� el Ma?a??a
(24.0667°N, 32.8833°E)
Time: 05:58:34
(UTC+00:00)

Daily predictions for brighter satellites

Satellite Brightness Start Highest point End
(mag) Time Altitude Azimuth Time Altitude Azimuth Time Altitude Azimuth
SL-16 R/B 3.6 01:18:33 30° N 01:18:33 30° N 01:21:20 10° NNE
BREEZE-M DEB (TANK) 4.1 01:16:10 66° S 01:17:15 77° SE 01:38:55 10° NE
CZ-2C R/B 4.0 01:21:30 10° N 01:23:57 29° N 01:23:57 29° N
Meteor 1-5 Rocket 4.2 01:32:59 10° N 01:41:13 28° S 01:43:39 10° S
METEOR-M 4.4 01:39:35 10° NNE 01:44:53 65° ESE 01:48:43 19° S
GPS 2-14 Rocket1 3.8 01:48:23 39° SE 01:48:23 39° SE 01:51:17 10° ESE
Tiangong 3.3 01:52:14 24° NE 01:52:14 24° NE 01:53:41 10° NE
Cosmos 1553 Rocket 3.8 01:46:36 21° S 01:50:54 86° W 01:57:10 10° N
Cosmos 192 4.3 01:58:57 59° WNW 01:58:57 59° WNW 02:03:33 10° N
GPS 2-15 Rocket1 4.0 02:00:09 35° S 02:00:42 36° S 02:05:07 10° ESE
Meteor 1-11 Rocket 4.2 01:58:55 10° N 02:04:44 64° E 02:10:23 10° SSE
Cosmos 1544 3.3 02:06:44 10° N 02:10:21 67° E 02:13:58 10° SSE
USA 290 2.9 02:16:22 41° NNW 02:16:22 41° NNW 02:18:44 10° N
Cosmos 1515 3.5 02:14:35 12° S 02:17:59 89° WSW 02:21:48 10° N
Cosmos 1486 Rocket 4.5 02:15:34 10° N 02:20:51 63° ENE 02:26:06 10° SSE
Cosmos 2228 Rocket 3.2 02:20:47 19° SSW 02:23:46 51° W 02:28:12 10° N
GENESIS II 4.1 02:24:49 18° NW 02:27:40 64° WSW 02:31:32 10° SSE
Meteor 1-27 Rocket 4.2 02:24:21 16° SW 02:28:39 40° W 02:34:10 10° NNW
ATLAS CENTAUR R/B 1.6 02:24:30 11° SSW 02:29:42 84° SE 02:32:17 10° NE
Envisat 4.1 02:24:54 10° NNE 02:29:46 46° E 02:34:36 10° S
CZ-2C R/B 2.2 02:29:46 27° WNW 02:31:19 36° NNW 02:35:22 10° NE
BREEZE-M DEB (TANK) 1.9 02:29:03 19° SW 02:31:47 84° SE 02:34:09 10° NE
Cosmos 1536 2.6 02:31:53 10° N 02:35:49 68° W 02:39:45 10° S
ALOS 3.8 02:32:44 10° NNW 02:35:17 18° WNW 02:35:17 18° WNW
MOS 1 Rocket 4.2 02:34:09 10° SSW 02:37:53 24° W 02:41:29 10° NW
H-2A ROCKET BODY 2.4 02:31:41 20° W 02:38:57 65° NNW 02:42:20 10° ENE
CZ-4B R/B 4.2 02:35:39 10° NNE 02:39:24 61° E 02:43:01 10° S
Cosmos 1943 3.2 02:34:00 10° SSW 02:39:35 60° WNW 02:45:13 10° N
USA 267 4.1 02:35:12 10° NE 02:41:30 51° SE 02:47:47 10° SSW
Cosmos 2315 Rocket 4.1 02:35:51 10° S 02:42:13 84° E 02:48:36 10° N
Cosmos 1743 2.7 02:40:36 10° N 02:44:28 88° E 02:48:18 10° S
FALCON 9 DEB 4.2 02:42:07 10° SSW 02:45:21 43° SE 02:48:35 10° NE
Cosmos 1707 Rocket 3.5 02:41:58 10° SSW 02:46:22 68° W 02:50:48 10° N
Cosmos 1862 Rocket 4.2 02:42:38 10° S 02:46:52 58° E 02:51:08 10° NNE
SJ-12 3.8 02:44:16 10° N 02:48:19 78° WNW 02:52:22 10° SSW
Lacrosse 5 1.8 02:44:10 10° SW 02:49:15 87° NW 02:54:22 10° NNE
Cosmos 1603 4.0 02:45:42 10° SW 02:51:01 45° WNW 02:56:23 10° N
Cosmos 1943 Rocket 2.1 02:46:21 10° NNW 02:52:01 74° WSW 02:57:37 10° S
Meteor 1-19 Rocket 4.1 02:49:04 10° SSW 02:54:25 67° W 02:59:47 10° N
SJ 16-02 4.5 02:56:54 10° NNE 02:59:35 16° ENE 03:02:14 10° ESE
ADEOS 3.7 02:57:31 10° NNE 03:02:44 84° ESE 03:07:57 10° SSW
Gbstr 26 Del rocket 4.2 02:57:56 10° NW 03:04:51 53° SW 03:10:29 10° SSE
H-2A R/B 2.9 03:01:24 10° N 03:05:10 52° WNW 03:08:55 10° SSW
Cosmos 2369 Rocket 2.9 02:59:51 10° N 03:05:21 59° ENE 03:10:50 10° SSE
Delta 2 Rocket 4.4 03:00:54 11° W 03:06:10 54° NNW 03:11:38 10° NE
SWIFT 3.0 03:03:06 10° WSW 03:07:11 46° S 03:11:14 10° E
NOSS 3-4 (A) 3.8 03:02:05 10° SW 03:07:24 38° WNW 03:12:52 10° N
NOSS 3-4 (C) 3.8 03:02:11 10° SW 03:07:31 39° WNW 03:13:00 10° N
Cosmos 1356 Rocket 3.3 03:08:06 10° NNW 03:12:15 71° W 03:16:19 10° S
Cosmos 1869 Rocket 4.3 03:08:38 10° NNW 03:12:36 33° W 03:16:34 10° SSW
ATLAS 2AS CENTAUR R/B 3.2 03:05:04 10° SSW 03:12:50 86° ESE 03:20:42 10° NNE
Cosmos 2297 4.2 03:10:34 10° NW 03:15:47 37° WSW 03:20:58 10° S
Landsat 5 3.4 03:12:01 10° SSE 03:16:01 90° ESE 03:19:56 10° NNW
CZ-4C R/B 3.1 03:16:38 10° SSE 03:19:51 74° ENE 03:23:09 10° N
Palapa B4 Rocket 4.0 03:13:08 10° W 03:20:09 56° S 03:24:41 10° ESE
Cosmos 1709 Rocket 4.0 03:16:39 10° NNW 03:22:41 66° W 03:28:46 10° S
